Time,TemperatureF,DewpointF,PressureIn,WindDirection,WindDirectionDegrees,WindSpeedMPH,WindSpeedGustMPH,Humidity,HourlyPrecipIn,Conditions,Clouds,dailyrainin,SoftwareType,DateUTC
2013-09-26 00:02:00,65.0,64.0,29.86,NW,315,2.0,3.0,99,0.00,,,0.00,Rainwise IP-100,2013-09-26 05:02:00,
2013-09-26 00:07:00,64.0,63.0,29.86,NW,315,2.0,2.0,98,0.00,,,0.00,Rainwise IP-100,2013-09-26 05:07:00,
2013-09-26 00:12:00,64.0,63.0,29.86,NW,315,2.0,2.0,98,0.00,,,0.00,Rainwise IP-100,2013-09-26 05:12:00,
2013-09-26 00:17:00,64.0,63.0,29.86,NW,315,1.0,3.0,98,0.00,,,0.00,Rainwise IP-100,2013-09-26 05:17:00,
2013-09-26 00:22:00,64.0,63.0,29.86,NW,315,1.0,2.0,98,0.00,,,0.00,Rainwise IP-100,2013-09-26 05:22:00,
2013-09-26 00:27:00,64.0,63.0,29.86,NW,315,1.0,2.0,98,0.00,,,0.00,Rainwise IP-100,2013-09-26 05:27:00,
2013-09-26 00:32:00,64.0,63.0,29.86,NW,315,2.0,2.0,98,0.00,,,0.00,Rainwise IP-100,2013-09-26 05:32:00,
2013-09-26 00:37:00,64.0,63.0,29.86,NW,315,1.0,3.0,98,0.00,,,0.00,Rainwise IP-100,2013-09-26 05:37:00,
2013-09-26 00:42:00,64.0,63.0,29.86,NW,315,0.0,3.0,98,0.00,,,0.00,Rainwise IP-100,2013-09-26 05:42:00,
2013-09-26 00:47:00,64.0,63.0,29.86,NW,315,1.0,2.0,98,0.00,,,0.00,Rainwise IP-100,2013-09-26 05:47:00,
2013-09-26 00:52:00,64.0,63.0,29.86,NW,315,1.0,3.0,98,0.00,,,0.00,Rainwise IP-100,2013-09-26 05:52:00,
2013-09-26 00:57:00,64.0,63.0,29.86,NW,315,1.0,3.0,98,0.00,,,0.00,Rainwise IP-100,2013-09-26 05:57:00,
2013-09-26 01:02:00,64.0,63.0,29.86,NW,315,1.0,3.0,98,0.00,,,0.00,Rainwise IP-100,2013-09-26 06:02:00,
2013-09-26 01:07:00,64.0,63.0,29.86,NW,315,1.0,3.0,98,0.00,,,0.00,Rainwise IP-100,2013-09-26 06:07:00,
2013-09-26 01:12:00,64.0,63.0,29.86,NW,315,0.0,3.0,98,0.00,,,0.00,Rainwise IP-100,2013-09-26 06:12:00,
2013-09-26 01:17:00,64.0,63.0,29.86,NW,315,0.0,1.0,98,0.00,,,0.00,Rainwise IP-100,2013-09-26 06:17:00,
2013-09-26 01:22:00,64.0,63.0,29.86,NW,315,2.0,3.0,98,0.00,,,0.00,Rainwise IP-100,2013-09-26 06:22:00,
2013-09-26 01:27:00,64.0,63.0,29.86,NW,315,1.0,2.0,98,0.00,,,0.00,Rainwise IP-100,2013-09-26 06:27:00,
2013-09-26 01:32:00,64.0,63.0,29.86,NW,315,1.0,2.0,98,0.00,,,0.00,Rainwise IP-100,2013-09-26 06:32:00,
2013-09-26 01:37:00,64.0,63.0,29.86,NW,315,0.0,2.0,98,0.00,,,0.00,Rainwise IP-100,2013-09-26 06:37:00,
2013-09-26 01:42:00,63.0,62.0,29.86,NW,315,0.0,0.0,98,0.00,,,0.00,Rainwise IP-100,2013-09-26 06:42:00,
2013-09-26 01:47:00,63.0,62.0,29.86,NW,315,0.0,0.0,98,0.00,,,0.00,Rainwise IP-100,2013-09-26 06:47:00,
2013-09-26 01:52:00,64.0,63.0,29.86,NW,315,0.0,0.0,98,0.00,,,0.00,Rainwise IP-100,2013-09-26 06:52:00,
2013-09-26 01:57:00,63.0,62.0,29.86,NW,315,0.0,0.0,98,0.00,,,0.00,Rainwise IP-100,2013-09-26 06:57:00,
2013-09-26 02:02:00,63.0,62.0,29.87,NW,315,0.0,0.0,98,0.00,,,0.00,Rainwise IP-100,2013-09-26 07:02:00,
2013-09-26 02:07:00,63.0,62.0,29.87,NW,315,3.0,3.0,98,0.00,,,0.00,Rainwise IP-100,2013-09-26 07:07:00,
2013-09-26 02:12:00,63.0,62.0,29.87,NW,315,1.0,3.0,98,0.00,,,0.00,Rainwise IP-100,2013-09-26 07:12:00,
2013-09-26 02:17:00,63.0,62.0,29.87,NW,315,1.0,3.0,98,0.00,,,0.00,Rainwise IP-100,2013-09-26 07:17:00,
2013-09-26 02:22:00,63.0,62.0,29.87,NW,315,0.0,3.0,98,0.00,,,0.00,Rainwise IP-100,2013-09-26 07:22:00,
2013-09-26 02:27:00,63.0,62.0,29.87,NW,315,0.0,0.0,98,0.00,,,0.00,Rainwise IP-100,2013-09-26 07:27:00,
2013-09-26 02:32:00,63.0,62.0,29.87,NW,315,0.0,0.0,98,0.00,,,0.00,Rainwise IP-100,2013-09-26 07:32:00,
2013-09-26 02:37:00,63.0,62.0,29.87,NW,315,2.0,0.0,98,0.00,,,0.00,Rainwise IP-100,2013-09-26 07:37:00,
2013-09-26 02:42:00,63.0,62.0,29.87,NW,315,1.0,3.0,98,0.00,,,0.00,Rainwise IP-100,2013-09-26 07:42:00,
2013-09-26 02:47:00,63.0,62.0,29.87,NW,315,2.0,3.0,98,0.00,,,0.00,Rainwise IP-100,2013-09-26 07:47:00,
2013-09-26 02:52:00,63.0,62.0,29.87,NW,315,0.0,3.0,98,0.00,,,0.00,Rainwise IP-100,2013-09-26 07:52:00,
2013-09-26 02:57:00,62.0,61.0,29.87,NW,315,0.0,3.0,98,0.00,,,0.00,Rainwise IP-100,2013-09-26 07:57:00,
2013-09-26 03:02:00,63.0,62.0,29.87,NW,315,2.0,4.0,98,0.00,,,0.00,Rainwise IP-100,2013-09-26 08:02:00,
2013-09-26 03:07:00,62.0,61.0,29.87,NW,315,4.0,4.0,98,0.00,,,0.00,Rainwise IP-100,2013-09-26 08:07:00,
2013-09-26 03:12:00,62.0,61.0,29.87,NW,315,1.0,4.0,98,0.00,,,0.00,Rainwise IP-100,2013-09-26 08:12:00,
2013-09-26 03:17:00,62.0,61.0,29.87,NW,315,2.0,4.0,98,0.00,,,0.00,Rainwise IP-100,2013-09-26 08:17:00,
2013-09-26 03:22:00,62.0,61.0,29.87,NW,315,2.0,4.0,98,0.00,,,0.00,Rainwise IP-100,2013-09-26 08:22:00,
2013-09-26 03:27:00,62.0,61.0,29.87,NW,315,2.0,4.0,98,0.00,,,0.00,Rainwise IP-100,2013-09-26 08:27:00,
2013-09-26 03:32:00,62.0,61.0,29.88,NW,315,2.0,3.0,98,0.00,,,0.00,Rainwise IP-100,2013-09-26 08:32:00,
2013-09-26 03:37:00,62.0,61.0,29.88,NW,315,1.0,3.0,98,0.00,,,0.00,Rainwise IP-100,2013-09-26 08:37:00,
2013-09-26 03:42:00,62.0,61.0,29.88,NW,315,2.0,4.0,98,0.00,,,0.00,Rainwise IP-100,2013-09-26 08:42:00,
2013-09-26 03:47:00,62.0,61.0,29.88,ENE,67,1.0,6.0,98,0.00,,,0.00,Rainwise IP-100,2013-09-26 08:47:00,
2013-09-26 03:52:00,62.0,61.0,29.88,East,90,5.0,6.0,98,0.00,,,0.00,Rainwise IP-100,2013-09-26 08:52:00,
2013-09-26 03:57:00,62.0,61.0,29.88,ENE,67,1.0,6.0,98,0.00,,,0.00,Rainwise IP-100,2013-09-26 08:57:00,
2013-09-26 04:02:00,62.0,61.0,29.89,North,360,5.0,6.0,98,0.00,,,0.00,Rainwise IP-100,2013-09-26 09:02:00,
2013-09-26 04:07:00,62.0,61.0,29.89,North,360,2.0,6.0,98,0.00,,,0.00,Rainwise IP-100,2013-09-26 09:07:00,
2013-09-26 04:12:00,62.0,61.0,29.89,North,360,4.0,6.0,98,0.00,,,0.00,Rainwise IP-100,2013-09-26 09:12:00,
2013-09-26 04:17:00,62.0,61.0,29.89,East,90,0.0,6.0,98,0.00,,,0.00,Rainwise IP-100,2013-09-26 09:17:00,
2013-09-26 04:22:00,62.0,61.0,29.89,NNE,22,0.0,4.0,98,0.00,,,0.00,Rainwise IP-100,2013-09-26 09:22:00,
2013-09-26 04:27:00,61.0,60.0,29.89,NNE,22,0.0,4.0,98,0.00,,,0.00,Rainwise IP-100,2013-09-26 09:27:00,
2013-09-26 04:32:00,61.0,60.0,29.91,North,360,3.0,3.0,98,0.00,,,0.00,Rainwise IP-100,2013-09-26 09:32:00,
2013-09-26 04:37:00,61.0,60.0,29.91,NE,45,1.0,3.0,98,0.00,,,0.00,Rainwise IP-100,2013-09-26 09:37:00,
2013-09-26 04:42:00,62.0,61.0,29.90,North,360,4.0,5.0,98,0.00,,,0.00,Rainwise IP-100,2013-09-26 09:42:00,
2013-09-26 04:47:00,61.0,60.0,29.90,North,360,3.0,5.0,98,0.00,,,0.00,Rainwise IP-100,2013-09-26 09:47:00,
2013-09-26 04:52:00,61.0,60.0,29.91,NE,45,2.0,4.0,98,0.00,,,0.00,Rainwise IP-100,2013-09-26 09:52:00,
2013-09-26 04:57:00,61.0,60.0,29.91,NE,45,0.0,3.0,98,0.00,,,0.00,Rainwise IP-100,2013-09-26 09:57:00,
2013-09-26 05:02:00,61.0,60.0,29.92,NE,45,0.0,3.0,98,0.00,,,0.00,Rainwise IP-100,2013-09-26 10:02:00,
2013-09-26 05:07:00,61.0,60.0,29.92,NE,45,5.0,5.0,98,0.00,,,0.00,Rainwise IP-100,2013-09-26 10:07:00,
2013-09-26 05:12:00,61.0,60.0,29.92,NNE,22,2.0,6.0,98,0.00,,,0.00,Rainwise IP-100,2013-09-26 10:12:00,
2013-09-26 05:17:00,61.0,60.0,29.92,North,360,2.0,5.0,98,0.00,,,0.00,Rainwise IP-100,2013-09-26 10:17:00,
2013-09-26 05:22:00,61.0,60.0,29.92,North,360,1.0,3.0,98,0.00,,,0.00,Rainwise IP-100,2013-09-26 10:22:00,
2013-09-26 05:27:00,61.0,60.0,29.92,North,360,4.0,4.0,98,0.00,,,0.00,Rainwise IP-100,2013-09-26 10:27:00,
2013-09-26 05:32:00,61.0,60.0,29.93,North,360,1.0,4.0,98,0.00,,,0.00,Rainwise IP-100,2013-09-26 10:32:00,
2013-09-26 05:37:00,61.0,60.0,29.93,North,360,1.0,4.0,98,0.00,,,0.00,Rainwise IP-100,2013-09-26 10:37:00,
2013-09-26 05:42:00,61.0,60.0,29.93,North,360,2.0,2.0,98,0.00,,,0.00,Rainwise IP-100,2013-09-26 10:42:00,
2013-09-26 05:47:00,61.0,60.0,29.93,North,360,3.0,3.0,98,0.00,,,0.00,Rainwise IP-100,2013-09-26 10:47:00,
2013-09-26 05:52:00,61.0,60.0,29.93,North,360,0.0,4.0,98,0.00,,,0.00,Rainwise IP-100,2013-09-26 10:52:00,
2013-09-26 05:57:00,61.0,60.0,29.93,North,360,1.0,4.0,98,0.00,,,0.00,Rainwise IP-100,2013-09-26 10:57:00,
2013-09-26 06:02:00,61.0,60.0,29.93,North,360,1.0,4.0,98,0.00,,,0.00,Rainwise IP-100,2013-09-26 11:02:00,
2013-09-26 06:07:00,61.0,60.0,29.93,NE,45,3.0,5.0,98,0.00,,,0.00,Rainwise IP-100,2013-09-26 11:07:00,
2013-09-26 06:12:00,61.0,60.0,29.94,NNE,22,1.0,4.0,98,0.00,,,0.00,Rainwise IP-100,2013-09-26 11:12:00,
2013-09-26 06:17:00,61.0,60.0,29.94,NNE,22,2.0,2.0,98,0.00,,,0.00,Rainwise IP-100,2013-09-26 11:17:00,
2013-09-26 06:22:00,61.0,60.0,29.94,North,360,2.0,4.0,98,0.00,,,0.00,Rainwise IP-100,2013-09-26 11:22:00,
2013-09-26 06:27:00,61.0,60.0,29.94,North,360,1.0,3.0,98,0.00,,,0.00,Rainwise IP-100,2013-09-26 11:27:00,
2013-09-26 06:32:00,61.0,60.0,29.94,North,360,2.0,2.0,98,0.00,,,0.00,Rainwise IP-100,2013-09-26 11:32:00,
2013-09-26 06:37:00,61.0,60.0,29.94,North,360,0.0,2.0,98,0.00,,,0.00,Rainwise IP-100,2013-09-26 11:37:00,
2013-09-26 06:42:00,61.0,60.0,29.95,North,360,1.0,2.0,98,0.00,,,0.00,Rainwise IP-100,2013-09-26 11:42:00,
2013-09-26 06:47:00,61.0,60.0,29.95,North,360,2.0,3.0,98,0.00,,,0.00,Rainwise IP-100,2013-09-26 11:47:00,
2013-09-26 06:52:00,61.0,60.0,29.95,North,360,1.0,2.0,98,0.00,,,0.00,Rainwise IP-100,2013-09-26 11:52:00,
2013-09-26 06:57:00,61.0,60.0,29.95,NE,45,2.0,2.0,98,0.00,,,0.00,Rainwise IP-100,2013-09-26 11:57:00,
2013-09-26 07:02:00,61.0,60.0,29.95,NE,45,3.0,4.0,98,0.00,,,0.00,Rainwise IP-100,2013-09-26 12:02:00,
2013-09-26 07:07:00,61.0,60.0,29.95,NE,45,2.0,4.0,98,0.00,,,0.00,Rainwise IP-100,2013-09-26 12:07:00,
2013-09-26 07:12:00,61.0,60.0,29.95,NE,45,1.0,4.0,98,0.00,,,0.00,Rainwise IP-100,2013-09-26 12:12:00,
2013-09-26 07:17:00,62.0,61.0,29.95,NE,45,3.0,3.0,98,0.00,,,0.00,Rainwise IP-100,2013-09-26 12:17:00,
2013-09-26 07:22:00,62.0,61.0,29.95,NE,45,4.0,4.0,98,0.00,,,0.00,Rainwise IP-100,2013-09-26 12:22:00,
2013-09-26 07:27:00,62.0,61.0,29.95,NE,45,0.0,4.0,98,0.00,,,0.00,Rainwise IP-100,2013-09-26 12:27:00,
2013-09-26 07:32:00,62.0,61.0,29.96,ENE,67,4.0,4.0,98,0.00,,,0.00,Rainwise IP-100,2013-09-26 12:32:00,
2013-09-26 07:37:00,62.0,61.0,29.96,NE,45,4.0,6.0,98,0.00,,,0.00,Rainwise IP-100,2013-09-26 12:37:00,
2013-09-26 07:42:00,62.0,61.0,29.96,NE,45,2.0,5.0,98,0.00,,,0.00,Rainwise IP-100,2013-09-26 12:42:00,
2013-09-26 07:47:00,63.0,62.0,29.96,NE,45,0.0,4.0,98,0.00,,,0.00,Rainwise IP-100,2013-09-26 12:47:00,
2013-09-26 07:52:00,63.0,62.0,29.97,NE,45,2.0,5.0,98,0.00,,,0.00,Rainwise IP-100,2013-09-26 12:52:00,
2013-09-26 07:57:00,63.0,62.0,29.97,NE,45,2.0,5.0,98,0.00,,,0.00,Rainwise IP-100,2013-09-26 12:57:00,
2013-09-26 08:02:00,63.0,62.0,29.97,NE,45,2.0,6.0,98,0.00,,,0.00,Rainwise IP-100,2013-09-26 13:02:00,
2013-09-26 08:07:00,63.0,62.0,29.97,NE,45,4.0,5.0,98,0.00,,,0.00,Rainwise IP-100,2013-09-26 13:07:00,
2013-09-26 08:12:00,63.0,62.0,29.97,ENE,67,3.0,6.0,98,0.00,,,0.00,Rainwise IP-100,2013-09-26 13:12:00,
2013-09-26 08:17:00,63.0,62.0,29.97,NE,45,4.0,6.0,98,0.00,,,0.00,Rainwise IP-100,2013-09-26 13:17:00,
2013-09-26 08:23:00,64.0,63.0,29.98,NE,45,3.0,6.0,98,0.00,,,0.00,Rainwise IP-100,2013-09-26 13:23:00,
2013-09-26 08:28:00,65.0,64.0,29.98,NE,45,4.0,6.0,99,0.00,,,0.00,Rainwise IP-100,2013-09-26 13:28:00,
2013-09-26 08:33:00,66.0,65.0,29.98,NE,45,0.0,5.0,99,0.00,,,0.00,Rainwise IP-100,2013-09-26 13:33:00,
2013-09-26 08:38:00,66.0,65.0,29.98,NNE,22,1.0,4.0,99,0.00,,,0.00,Rainwise IP-100,2013-09-26 13:38:00,
2013-09-26 08:43:00,67.0,66.0,29.98,NE,45,2.0,6.0,99,0.00,,,0.00,Rainwise IP-100,2013-09-26 13:43:00,
2013-09-26 08:48:00,67.0,66.0,29.98,NE,45,1.0,6.0,99,0.00,,,0.00,Rainwise IP-100,2013-09-26 13:48:00,
2013-09-26 08:53:00,67.0,66.0,29.99,ENE,67,1.0,4.0,99,0.00,,,0.00,Rainwise IP-100,2013-09-26 13:53:00,
2013-09-26 08:58:00,67.0,66.0,29.99,NE,45,1.0,5.0,99,0.00,,,0.00,Rainwise IP-100,2013-09-26 13:58:00,
2013-09-26 09:03:00,68.0,67.0,29.99,NE,45,1.0,5.0,99,0.00,,,0.00,Rainwise IP-100,2013-09-26 14:03:00,
2013-09-26 09:08:00,69.0,68.0,29.99,NE,45,0.0,5.0,99,0.00,,,0.00,Rainwise IP-100,2013-09-26 14:08:00,
2013-09-26 09:13:00,70.0,69.0,29.99,NE,45,2.0,5.0,99,0.00,,,0.00,Rainwise IP-100,2013-09-26 14:13:00,
2013-09-26 09:18:00,70.0,69.0,29.99,NE,45,2.0,4.0,99,0.00,,,0.00,Rainwise IP-100,2013-09-26 14:18:00,
2013-09-26 09:23:00,71.0,69.0,29.99,ENE,67,0.0,5.0,93,0.00,,,0.00,Rainwise IP-100,2013-09-26 14:23:00,
2013-09-26 09:28:00,72.0,71.0,29.99,NE,45,5.0,5.0,96,0.00,,,0.00,Rainwise IP-100,2013-09-26 14:28:00,
2013-09-26 09:33:00,72.0,68.0,29.99,NE,45,1.0,5.0,89,0.00,,,0.00,Rainwise IP-100,2013-09-26 14:33:00,
2013-09-26 09:38:00,73.0,69.0,29.99,NE,45,4.0,6.0,87,0.00,,,0.00,Rainwise IP-100,2013-09-26 14:38:00,
2013-09-26 09:43:00,73.0,69.0,29.99,NE,45,0.0,5.0,86,0.00,,,0.00,Rainwise IP-100,2013-09-26 14:43:00,
2013-09-26 09:48:00,74.0,68.0,29.99,NNE,22,5.0,5.0,81,0.00,,,0.00,Rainwise IP-100,2013-09-26 14:48:00,
2013-09-26 09:53:00,75.0,68.0,29.98,NE,45,6.0,6.0,80,0.00,,,0.00,Rainwise IP-100,2013-09-26 14:53:00,
2013-09-26 09:58:00,75.0,68.0,29.98,NE,45,7.0,7.0,79,0.00,,,0.00,Rainwise IP-100,2013-09-26 14:58:00,
2013-09-26 10:03:00,74.0,67.0,29.99,NNE,22,6.0,7.0,79,0.00,,,0.00,Rainwise IP-100,2013-09-26 15:03:00,
2013-09-26 10:08:00,74.0,66.0,29.99,NE,45,8.0,9.0,77,0.00,,,0.00,Rainwise IP-100,2013-09-26 15:08:00,
2013-09-26 10:13:00,74.0,66.0,29.99,NE,45,9.0,9.0,77,0.00,,,0.00,Rainwise IP-100,2013-09-26 15:13:00,
2013-09-26 10:18:00,74.0,66.0,29.99,NE,45,8.0,10.0,75,0.00,,,0.00,Rainwise IP-100,2013-09-26 15:18:00,
2013-09-26 10:23:00,74.0,66.0,29.99,East,90,3.0,9.0,75,0.00,,,0.00,Rainwise IP-100,2013-09-26 15:23:00,
2013-09-26 10:28:00,75.0,66.0,29.99,East,90,6.0,7.0,74,0.00,,,0.00,Rainwise IP-100,2013-09-26 15:28:00,
2013-09-26 10:33:00,75.0,66.0,29.99,East,90,2.0,9.0,74,0.00,,,0.00,Rainwise IP-100,2013-09-26 15:33:00,
2013-09-26 10:38:00,75.0,66.0,29.99,NE,45,7.0,7.0,75,0.00,,,0.00,Rainwise IP-100,2013-09-26 15:38:00,
2013-09-26 10:43:00,76.0,67.0,29.99,ENE,67,3.0,9.0,75,0.00,,,0.00,Rainwise IP-100,2013-09-26 15:43:00,
2013-09-26 10:48:00,75.0,65.0,29.99,NE,45,3.0,6.0,72,0.00,,,0.00,Rainwise IP-100,2013-09-26 15:48:00,
2013-09-26 10:53:00,76.0,67.0,29.99,NE,45,2.0,5.0,74,0.00,,,0.00,Rainwise IP-100,2013-09-26 15:53:00,
2013-09-26 10:58:00,77.0,67.0,29.98,ENE,67,2.0,7.0,71,0.00,,,0.00,Rainwise IP-100,2013-09-26 15:58:00,
2013-09-26 11:03:00,77.0,66.0,29.98,NE,45,7.0,7.0,70,0.00,,,0.00,Rainwise IP-100,2013-09-26 16:03:00,
2013-09-26 11:08:00,77.0,66.0,29.98,ENE,67,6.0,8.0,70,0.00,,,0.00,Rainwise IP-100,2013-09-26 16:08:00,
2013-09-26 11:13:00,78.0,66.0,29.98,North,360,1.0,6.0,68,0.00,,,0.00,Rainwise IP-100,2013-09-26 16:13:00,
2013-09-26 11:18:00,78.0,67.0,29.98,NNE,22,3.0,9.0,69,0.00,,,0.00,Rainwise IP-100,2013-09-26 16:18:00,
2013-09-26 11:23:00,76.0,65.0,29.98,NE,45,7.0,10.0,69,0.00,,,0.00,Rainwise IP-100,2013-09-26 16:23:00,
2013-09-26 11:28:00,76.0,63.0,29.98,ESE,112,4.0,7.0,66,0.00,,,0.00,Rainwise IP-100,2013-09-26 16:28:00,
2013-09-26 11:33:00,77.0,66.0,29.98,North,360,5.0,8.0,69,0.00,,,0.00,Rainwise IP-100,2013-09-26 16:33:00,
2013-09-26 11:38:00,77.0,66.0,29.98,NE,45,6.0,7.0,68,0.00,,,0.00,Rainwise IP-100,2013-09-26 16:38:00,
2013-09-26 11:43:00,77.0,65.0,29.97,NE,45,0.0,10.0,66,0.00,,,0.00,Rainwise IP-100,2013-09-26 16:43:00,
2013-09-26 11:48:00,78.0,65.0,29.97,ENE,67,7.0,9.0,65,0.00,,,0.00,Rainwise IP-100,2013-09-26 16:48:00,
2013-09-26 11:53:00,78.0,65.0,29.97,NNE,22,6.0,8.0,65,0.00,,,0.00,Rainwise IP-100,2013-09-26 16:53:00,
2013-09-26 11:58:00,77.0,63.0,29.97,East,90,6.0,12.0,63,0.00,,,0.00,Rainwise IP-100,2013-09-26 16:58:00,
2013-09-26 12:03:00,77.0,63.0,29.98,East,90,10.0,12.0,62,0.00,,,0.00,Rainwise IP-100,2013-09-26 17:03:00,
2013-09-26 12:08:00,78.0,64.0,29.98,NE,45,7.0,10.0,63,0.00,,,0.00,Rainwise IP-100,2013-09-26 17:08:00,
2013-09-26 12:13:00,78.0,64.0,29.97,NE,45,6.0,12.0,62,0.00,,,0.00,Rainwise IP-100,2013-09-26 17:13:00,
2013-09-26 12:18:00,77.0,61.0,29.97,NE,45,7.0,9.0,59,0.00,,,0.00,Rainwise IP-100,2013-09-26 17:18:00,
2013-09-26 12:23:00,77.0,62.0,29.97,NE,45,5.0,13.0,60,0.00,,,0.00,Rainwise IP-100,2013-09-26 17:23:00,
2013-09-26 12:28:00,78.0,62.0,29.97,NE,45,4.0,10.0,58,0.00,,,0.00,Rainwise IP-100,2013-09-26 17:28:00,
2013-09-26 12:33:00,78.0,62.0,29.97,NE,45,5.0,10.0,59,0.00,,,0.00,Rainwise IP-100,2013-09-26 17:33:00,
2013-09-26 12:38:00,79.0,64.0,29.97,East,90,4.0,7.0,60,0.00,,,0.00,Rainwise IP-100,2013-09-26 17:38:00,
2013-09-26 12:43:00,79.0,63.0,29.96,North,360,6.0,13.0,58,0.00,,,0.00,Rainwise IP-100,2013-09-26 17:43:00,
2013-09-26 12:48:00,78.0,63.0,29.96,NE,45,9.0,9.0,60,0.00,,,0.00,Rainwise IP-100,2013-09-26 17:48:00,
2013-09-26 12:53:00,79.0,63.0,29.96,ENE,67,6.0,12.0,58,0.00,,,0.00,Rainwise IP-100,2013-09-26 17:53:00,
2013-09-26 12:58:00,80.0,63.0,29.96,East,90,6.0,7.0,56,0.00,,,0.00,Rainwise IP-100,2013-09-26 17:58:00,
2013-09-26 13:03:00,79.0,62.0,29.96,ENE,67,6.0,13.0,57,0.00,,,0.00,Rainwise IP-100,2013-09-26 18:03:00,
2013-09-26 13:08:00,79.0,62.0,29.96,NE,45,5.0,9.0,57,0.00,,,0.00,Rainwise IP-100,2013-09-26 18:08:00,
2013-09-26 13:13:00,80.0,63.0,29.95,NE,45,6.0,9.0,56,0.00,,,0.00,Rainwise IP-100,2013-09-26 18:13:00,
2013-09-26 13:18:00,78.0,60.0,29.95,NE,45,7.0,10.0,54,0.00,,,0.00,Rainwise IP-100,2013-09-26 18:18:00,
2013-09-26 13:23:00,79.0,62.0,29.95,ENE,67,7.0,10.0,56,0.00,,,0.00,Rainwise IP-100,2013-09-26 18:23:00,
2013-09-26 13:28:00,79.0,62.0,29.95,North,360,7.0,9.0,57,0.00,,,0.00,Rainwise IP-100,2013-09-26 18:28:00,
2013-09-26 13:33:00,79.0,61.0,29.95,East,90,6.0,10.0,55,0.00,,,0.00,Rainwise IP-100,2013-09-26 18:33:00,
2013-09-26 13:38:00,78.0,62.0,29.95,East,90,3.0,9.0,58,0.00,,,0.00,Rainwise IP-100,2013-09-26 18:38:00,
2013-09-26 13:43:00,78.0,63.0,29.96,ENE,67,5.0,8.0,60,0.00,,,0.00,Rainwise IP-100,2013-09-26 18:43:00,
2013-09-26 13:48:00,79.0,63.0,29.96,NE,45,6.0,7.0,58,0.00,,,0.00,Rainwise IP-100,2013-09-26 18:48:00,
2013-09-26 13:53:00,80.0,62.0,29.94,NE,45,7.0,9.0,54,0.00,,,0.00,Rainwise IP-100,2013-09-26 18:53:00,
2013-09-26 13:58:00,80.0,63.0,29.94,NE,45,2.0,9.0,56,0.00,,,0.00,Rainwise IP-100,2013-09-26 18:58:00,
2013-09-26 14:03:00,80.0,64.0,29.94,ENE,67,4.0,6.0,59,0.00,,,0.00,Rainwise IP-100,2013-09-26 19:03:00,
2013-09-26 14:08:00,80.0,63.0,29.94,NE,45,8.0,9.0,57,0.00,,,0.00,Rainwise IP-100,2013-09-26 19:08:00,
2013-09-26 14:13:00,80.0,62.0,29.94,East,90,3.0,9.0,55,0.00,,,0.00,Rainwise IP-100,2013-09-26 19:13:00,
2013-09-26 14:18:00,82.0,63.0,29.94,NE,45,1.0,6.0,54,0.00,,,0.00,Rainwise IP-100,2013-09-26 19:18:00,
2013-09-26 14:23:00,81.0,62.0,29.93,NE,45,4.0,9.0,53,0.00,,,0.00,Rainwise IP-100,2013-09-26 19:23:00,
2013-09-26 14:28:00,82.0,62.0,29.93,NE,45,4.0,7.0,52,0.00,,,0.00,Rainwise IP-100,2013-09-26 19:28:00,
2013-09-26 14:33:00,82.0,60.0,29.93,NE,45,3.0,6.0,47,0.00,,,0.00,Rainwise IP-100,2013-09-26 19:33:00,
2013-09-26 14:38:00,82.0,61.0,29.93,NE,45,4.0,6.0,50,0.00,,,0.00,Rainwise IP-100,2013-09-26 19:38:00,
2013-09-26 14:43:00,82.0,62.0,29.93,NNE,22,2.0,6.0,51,0.00,,,0.00,Rainwise IP-100,2013-09-26 19:43:00,
2013-09-26 14:48:00,81.0,61.0,29.93,East,90,3.0,10.0,51,0.00,,,0.00,Rainwise IP-100,2013-09-26 19:48:00,
2013-09-26 14:53:00,82.0,60.0,29.93,NE,45,7.0,7.0,48,0.00,,,0.00,Rainwise IP-100,2013-09-26 19:53:00,
2013-09-26 14:58:00,81.0,61.0,29.93,SE,135,6.0,8.0,50,0.00,,,0.00,Rainwise IP-100,2013-09-26 19:58:00,
2013-09-26 15:03:00,82.0,60.0,29.93,ESE,112,3.0,6.0,48,0.00,,,0.00,Rainwise IP-100,2013-09-26 20:03:00,
2013-09-26 15:08:00,82.0,61.0,29.93,East,90,1.0,6.0,50,0.00,,,0.00,Rainwise IP-100,2013-09-26 20:08:00,
2013-09-26 15:13:00,82.0,61.0,29.93,NE,45,0.0,7.0,49,0.00,,,0.00,Rainwise IP-100,2013-09-26 20:13:00,
2013-09-26 15:18:00,83.0,62.0,29.93,NE,45,3.0,4.0,49,0.00,,,0.00,Rainwise IP-100,2013-09-26 20:18:00,
2013-09-26 15:23:00,83.0,58.0,29.93,NE,45,2.0,7.0,43,0.00,,,0.00,Rainwise IP-100,2013-09-26 20:23:00,
2013-09-26 15:28:00,82.0,56.0,29.93,NE,45,2.0,6.0,42,0.00,,,0.00,Rainwise IP-100,2013-09-26 20:28:00,
2013-09-26 15:33:00,83.0,58.0,29.93,NE,45,1.0,5.0,43,0.00,,,0.00,Rainwise IP-100,2013-09-26 20:33:00,
2013-09-26 15:38:00,84.0,57.0,29.93,NE,45,2.0,5.0,41,0.00,,,0.00,Rainwise IP-100,2013-09-26 20:38:00,
2013-09-26 15:43:00,86.0,59.0,29.92,NE,45,2.0,4.0,41,0.00,,,0.00,Rainwise IP-100,2013-09-26 20:43:00,
2013-09-26 15:48:00,85.0,57.0,29.92,East,90,1.0,4.0,40,0.00,,,0.00,Rainwise IP-100,2013-09-26 20:48:00,
2013-09-26 15:53:00,83.0,58.0,29.92,NE,45,4.0,6.0,43,0.00,,,0.00,Rainwise IP-100,2013-09-26 20:53:00,
2013-09-26 15:58:00,84.0,59.0,29.92,NE,45,2.0,6.0,43,0.00,,,0.00,Rainwise IP-100,2013-09-26 20:58:00,
2013-09-26 16:03:00,85.0,61.0,29.92,NE,45,2.0,3.0,45,0.00,,,0.00,Rainwise IP-100,2013-09-26 21:03:00,
2013-09-26 16:08:00,83.0,57.0,29.92,NE,45,3.0,5.0,41,0.00,,,0.00,Rainwise IP-100,2013-09-26 21:08:00,
2013-09-26 16:13:00,85.0,59.0,29.93,NE,45,0.0,4.0,42,0.00,,,0.00,Rainwise IP-100,2013-09-26 21:13:00,
2013-09-26 16:18:00,85.0,57.0,29.93,NE,45,0.0,2.0,40,0.00,,,0.00,Rainwise IP-100,2013-09-26 21:18:00,
2013-09-26 16:23:00,86.0,59.0,29.93,ENE,67,0.0,3.0,40,0.00,,,0.00,Rainwise IP-100,2013-09-26 21:23:00,
2013-09-26 16:28:00,86.0,58.0,29.93,ENE,67,0.0,1.0,39,0.00,,,0.00,Rainwise IP-100,2013-09-26 21:28:00,
2013-09-26 16:34:00,87.0,58.0,29.91,ENE,67,1.0,3.0,38,0.00,,,0.00,Rainwise IP-100,2013-09-26 21:34:00,
2013-09-26 16:39:00,83.0,59.0,29.91,NE,45,5.0,7.0,45,0.00,,,0.00,Rainwise IP-100,2013-09-26 21:39:00,
2013-09-26 16:44:00,82.0,61.0,29.94,NE,45,2.0,9.0,49,0.00,,,0.00,Rainwise IP-100,2013-09-26 21:44:00,
2013-09-26 16:49:00,82.0,60.0,29.94,NE,45,7.0,7.0,47,0.00,,,0.00,Rainwise IP-100,2013-09-26 21:49:00,
2013-09-26 16:54:00,80.0,62.0,29.95,NNE,22,4.0,7.0,54,0.00,,,0.00,Rainwise IP-100,2013-09-26 21:54:00,
2013-09-26 16:59:00,79.0,62.0,29.95,NE,45,3.0,7.0,57,0.00,,,0.00,Rainwise IP-100,2013-09-26 21:59:00,
2013-09-26 17:04:00,78.0,62.0,29.95,NE,45,4.0,9.0,58,0.00,,,0.00,Rainwise IP-100,2013-09-26 22:04:00,
2013-09-26 17:09:00,78.0,63.0,29.95,NE,45,4.0,7.0,60,0.00,,,0.00,Rainwise IP-100,2013-09-26 22:09:00,
2013-09-26 17:14:00,78.0,62.0,29.95,NE,45,4.0,6.0,59,0.00,,,0.00,Rainwise IP-100,2013-09-26 22:14:00,
2013-09-26 17:19:00,79.0,63.0,29.95,NE,45,1.0,5.0,58,0.00,,,0.00,Rainwise IP-100,2013-09-26 22:19:00,
2013-09-26 17:24:00,80.0,64.0,29.94,NE,45,0.0,2.0,58,0.00,,,0.00,Rainwise IP-100,2013-09-26 22:24:00,
2013-09-26 17:29:00,78.0,63.0,29.94,NE,45,0.0,1.0,61,0.00,,,0.00,Rainwise IP-100,2013-09-26 22:29:00,
2013-09-26 17:34:00,77.0,63.0,29.95,North,360,2.0,4.0,62,0.00,,,0.00,Rainwise IP-100,2013-09-26 22:34:00,
2013-09-26 17:39:00,77.0,63.0,29.95,North,360,4.0,6.0,63,0.00,,,0.00,Rainwise IP-100,2013-09-26 22:39:00,
2013-09-26 17:44:00,77.0,64.0,29.94,NE,45,6.0,8.0,65,0.00,,,0.00,Rainwise IP-100,2013-09-26 22:44:00,
2013-09-26 17:49:00,76.0,64.0,29.94,North,360,6.0,6.0,68,0.00,,,0.00,Rainwise IP-100,2013-09-26 22:49:00,
2013-09-26 17:54:00,76.0,65.0,29.95,North,360,3.0,6.0,70,0.00,,,0.00,Rainwise IP-100,2013-09-26 22:54:00,
2013-09-26 17:59:00,75.0,64.0,29.95,NE,45,4.0,7.0,69,0.00,,,0.00,Rainwise IP-100,2013-09-26 22:59:00,
2013-09-26 18:04:00,75.0,63.0,29.95,NE,45,6.0,8.0,67,0.00,,,0.00,Rainwise IP-100,2013-09-26 23:04:00,
2013-09-26 18:09:00,75.0,65.0,29.95,NE,45,1.0,7.0,70,0.00,,,0.00,Rainwise IP-100,2013-09-26 23:09:00,
2013-09-26 18:14:00,75.0,64.0,29.95,NE,45,5.0,6.0,69,0.00,,,0.00,Rainwise IP-100,2013-09-26 23:14:00,
2013-09-26 18:19:00,75.0,65.0,29.95,NE,45,3.0,5.0,71,0.00,,,0.00,Rainwise IP-100,2013-09-26 23:19:00,
2013-09-26 18:24:00,75.0,66.0,29.95,North,360,1.0,5.0,74,0.00,,,0.00,Rainwise IP-100,2013-09-26 23:24:00,
2013-09-26 18:29:00,74.0,66.0,29.95,North,360,2.0,4.0,78,0.00,,,0.00,Rainwise IP-100,2013-09-26 23:29:00,
2013-09-26 18:34:00,73.0,66.0,29.96,North,360,0.0,3.0,80,0.00,,,0.00,Rainwise IP-100,2013-09-26 23:34:00,
2013-09-26 18:39:00,72.0,66.0,29.96,North,360,0.0,2.0,82,0.00,,,0.00,Rainwise IP-100,2013-09-26 23:39:00,
2013-09-26 18:44:00,72.0,66.0,29.96,North,360,0.0,0.0,84,0.00,,,0.00,Rainwise IP-100,2013-09-26 23:44:00,
2013-09-26 18:49:00,72.0,67.0,29.96,North,360,0.0,0.0,85,0.00,,,0.00,Rainwise IP-100,2013-09-26 23:49:00,
2013-09-26 18:54:00,71.0,66.0,29.96,North,360,0.0,0.0,87,0.00,,,0.00,Rainwise IP-100,2013-09-26 23:54:00,
2013-09-26 18:59:00,71.0,67.0,29.96,NNW,337,2.0,2.0,89,0.00,,,0.00,Rainwise IP-100,2013-09-26 23:59:00,
2013-09-26 19:04:00,70.0,67.0,29.96,NNW,337,2.0,3.0,90,0.00,,,0.00,Rainwise IP-100,2013-09-27 00:04:00,
2013-09-26 19:10:00,70.0,67.0,29.96,NW,315,3.0,5.0,91,0.00,,,0.00,Rainwise IP-100,2013-09-27 00:10:00,
2013-09-26 19:15:00,70.0,67.0,29.96,NW,315,3.0,5.0,91,0.00,,,0.00,Rainwise IP-100,2013-09-27 00:15:00,
2013-09-26 19:20:00,70.0,67.0,29.96,NW,315,2.0,3.0,92,0.00,,,0.00,Rainwise IP-100,2013-09-27 00:20:00,
2013-09-26 19:25:00,70.0,68.0,29.96,NW,315,2.0,2.0,93,0.00,,,0.00,Rainwise IP-100,2013-09-27 00:25:00,
2013-09-26 19:30:00,69.0,66.0,29.96,NW,315,4.0,4.0,92,0.00,,,0.00,Rainwise IP-100,2013-09-27 00:30:00,
2013-09-26 19:35:00,69.0,66.0,29.96,NW,315,0.0,4.0,91,0.00,,,0.00,Rainwise IP-100,2013-09-27 00:35:00,
2013-09-26 19:40:00,69.0,66.0,29.96,NW,315,2.0,3.0,92,0.00,,,0.00,Rainwise IP-100,2013-09-27 00:40:00,
2013-09-26 19:45:00,69.0,66.0,29.97,NW,315,1.0,3.0,93,0.00,,,0.00,Rainwise IP-100,2013-09-27 00:45:00,
2013-09-26 19:50:00,69.0,67.0,29.97,NW,315,3.0,3.0,95,0.00,,,0.00,Rainwise IP-100,2013-09-27 00:50:00,
2013-09-26 19:55:00,69.0,68.0,29.97,NW,315,3.0,4.0,97,0.00,,,0.00,Rainwise IP-100,2013-09-27 00:55:00,
2013-09-26 20:00:00,68.0,67.0,29.97,NW,315,1.0,4.0,98,0.00,,,0.00,Rainwise IP-100,2013-09-27 01:00:00,
2013-09-26 20:05:00,68.0,67.0,29.97,NW,315,2.0,3.0,99,0.00,,,0.00,Rainwise IP-100,2013-09-27 01:05:00,
2013-09-26 20:10:00,68.0,67.0,29.97,NW,315,1.0,3.0,99,0.00,,,0.00,Rainwise IP-100,2013-09-27 01:10:00,
2013-09-26 20:15:00,68.0,67.0,29.97,NW,315,1.0,2.0,99,0.00,,,0.00,Rainwise IP-100,2013-09-27 01:15:00,
2013-09-26 20:20:00,67.0,66.0,29.97,NW,315,0.0,3.0,99,0.00,,,0.00,Rainwise IP-100,2013-09-27 01:20:00,
2013-09-26 20:25:00,67.0,66.0,29.98,NW,315,0.0,2.0,99,0.00,,,0.00,Rainwise IP-100,2013-09-27 01:25:00,
2013-09-26 20:30:00,67.0,66.0,29.98,NW,315,2.0,3.0,99,0.00,,,0.00,Rainwise IP-100,2013-09-27 01:30:00,
2013-09-26 20:35:00,67.0,66.0,29.98,NW,315,1.0,3.0,99,0.00,,,0.00,Rainwise IP-100,2013-09-27 01:35:00,
2013-09-26 20:40:00,67.0,66.0,29.98,WNW,292,0.0,4.0,99,0.00,,,0.00,Rainwise IP-100,2013-09-27 01:40:00,
2013-09-26 20:45:00,67.0,66.0,29.99,West,270,1.0,4.0,99,0.00,,,0.00,Rainwise IP-100,2013-09-27 01:45:00,
2013-09-26 20:50:00,66.0,65.0,29.99,West,270,0.0,2.0,99,0.00,,,0.00,Rainwise IP-100,2013-09-27 01:50:00,
2013-09-26 20:55:00,66.0,65.0,29.99,SE,135,2.0,3.0,99,0.00,,,0.00,Rainwise IP-100,2013-09-27 01:55:00,
2013-09-26 21:00:00,66.0,65.0,29.99,NE,45,4.0,4.0,99,0.00,,,0.00,Rainwise IP-100,2013-09-27 02:00:00,
2013-09-26 21:05:00,66.0,65.0,30.00,WSW,247,4.0,5.0,99,0.00,,,0.00,Rainwise IP-100,2013-09-27 02:05:00,
2013-09-26 21:10:00,66.0,65.0,30.00,North,360,1.0,5.0,99,0.00,,,0.00,Rainwise IP-100,2013-09-27 02:10:00,
2013-09-26 21:15:00,66.0,65.0,29.99,NW,315,3.0,4.0,99,0.00,,,0.00,Rainwise IP-100,2013-09-27 02:15:00,
2013-09-26 21:20:00,66.0,65.0,29.99,NW,315,5.0,5.0,99,0.00,,,0.00,Rainwise IP-100,2013-09-27 02:20:00,
2013-09-26 21:25:00,66.0,65.0,30.00,WNW,292,3.0,5.0,99,0.00,,,0.00,Rainwise IP-100,2013-09-27 02:25:00,
2013-09-26 21:30:00,66.0,65.0,30.00,WNW,292,3.0,3.0,99,0.00,,,0.00,Rainwise IP-100,2013-09-27 02:30:00,
2013-09-26 21:35:00,66.0,65.0,30.00,WNW,292,2.0,4.0,99,0.00,,,0.00,Rainwise IP-100,2013-09-27 02:35:00,
2013-09-26 21:40:00,66.0,65.0,30.00,NW,315,2.0,5.0,99,0.00,,,0.00,Rainwise IP-100,2013-09-27 02:40:00,
2013-09-26 21:45:00,66.0,65.0,30.00,NW,315,1.0,5.0,99,0.00,,,0.00,Rainwise IP-100,2013-09-27 02:45:00,
2013-09-26 21:50:00,65.0,64.0,30.00,WNW,292,4.0,4.0,99,0.00,,,0.00,Rainwise IP-100,2013-09-27 02:50:00,
2013-09-26 21:55:00,65.0,64.0,30.00,WNW,292,2.0,5.0,99,0.00,,,0.00,Rainwise IP-100,2013-09-27 02:55:00,
2013-09-26 22:00:00,65.0,64.0,30.00,West,270,3.0,4.0,99,0.00,,,0.00,Rainwise IP-100,2013-09-27 03:00:00,
2013-09-26 22:05:00,65.0,64.0,30.00,WNW,292,2.0,5.0,99,0.00,,,0.00,Rainwise IP-100,2013-09-27 03:05:00,
2013-09-26 22:10:00,65.0,64.0,30.00,WNW,292,1.0,2.0,99,0.00,,,0.00,Rainwise IP-100,2013-09-27 03:10:00,
2013-09-26 22:15:00,64.0,63.0,30.00,WNW,292,0.0,2.0,98,0.00,,,0.00,Rainwise IP-100,2013-09-27 03:15:00,
2013-09-26 22:20:00,64.0,63.0,30.00,WNW,292,0.0,1.0,98,0.00,,,0.00,Rainwise IP-100,2013-09-27 03:20:00,
2013-09-26 22:25:00,64.0,63.0,30.01,WNW,292,2.0,3.0,98,0.00,,,0.00,Rainwise IP-100,2013-09-27 03:25:00,
2013-09-26 22:30:00,64.0,63.0,30.01,WNW,292,0.0,2.0,98,0.00,,,0.00,Rainwise IP-100,2013-09-27 03:30:00,
2013-09-26 22:35:00,64.0,63.0,30.01,West,270,3.0,3.0,98,0.00,,,0.00,Rainwise IP-100,2013-09-27 03:35:00,
2013-09-26 22:40:00,64.0,63.0,30.01,West,270,2.0,3.0,98,0.00,,,0.00,Rainwise IP-100,2013-09-27 03:40:00,
2013-09-26 22:45:00,64.0,63.0,30.01,WNW,292,2.0,4.0,98,0.00,,,0.00,Rainwise IP-100,2013-09-27 03:45:00,
2013-09-26 22:50:00,64.0,63.0,30.01,WNW,292,2.0,4.0,98,0.00,,,0.00,Rainwise IP-100,2013-09-27 03:50:00,
2013-09-26 22:55:00,63.0,62.0,30.01,WNW,292,1.0,3.0,98,0.00,,,0.00,Rainwise IP-100,2013-09-27 03:55:00,
2013-09-26 23:00:00,63.0,62.0,30.01,WNW,292,2.0,3.0,98,0.00,,,0.00,Rainwise IP-100,2013-09-27 04:00:00,
2013-09-26 23:01:00,63.0,62.0,30.01,WNW,292,3.0,3.0,98,0.00,,,0.00,Rainwise IP-100,2013-09-27 04:01:00,
2013-09-26 23:02:00,63.0,62.0,30.01,WNW,292,2.0,3.0,98,0.00,,,0.00,Rainwise IP-100,2013-09-27 04:02:00,
2013-09-26 23:07:00,63.0,62.0,30.01,WNW,292,2.0,3.0,98,0.00,,,0.00,Rainwise IP-100,2013-09-27 04:07:00,
2013-09-26 23:12:00,64.0,63.0,30.01,WNW,292,2.0,3.0,98,0.00,,,0.00,Rainwise IP-100,2013-09-27 04:12:00,
2013-09-26 23:17:00,63.0,62.0,30.01,WNW,292,2.0,4.0,98,0.00,,,0.00,Rainwise IP-100,2013-09-27 04:17:00,
2013-09-26 23:22:00,63.0,62.0,30.01,WNW,292,2.0,3.0,98,0.00,,,0.00,Rainwise IP-100,2013-09-27 04:22:00,
2013-09-26 23:27:00,63.0,62.0,30.01,WNW,292,0.0,4.0,98,0.00,,,0.00,Rainwise IP-100,2013-09-27 04:27:00,
2013-09-26 23:32:00,63.0,62.0,30.01,West,270,3.0,5.0,98,0.00,,,0.00,Rainwise IP-100,2013-09-27 04:32:00,
2013-09-26 23:37:00,63.0,62.0,30.01,NW,315,4.0,6.0,98,0.00,,,0.00,Rainwise IP-100,2013-09-27 04:37:00,
2013-09-26 23:42:00,63.0,62.0,30.01,NW,315,2.0,6.0,98,0.00,,,0.00,Rainwise IP-100,2013-09-27 04:42:00,
2013-09-26 23:47:00,63.0,62.0,30.01,NW,315,2.0,6.0,98,0.00,,,0.00,Rainwise IP-100,2013-09-27 04:47:00,
2013-09-26 23:52:00,63.0,62.0,30.01,NW,315,3.0,5.0,98,0.00,,,0.00,Rainwise IP-100,2013-09-27 04:52:00,
2013-09-26 23:57:00,62.0,61.0,30.02,North,360,1.0,7.0,98,0.00,,,0.00,Rainwise IP-100,2013-09-27 04:57:00,